Location: ??
(35.5990°N, 139.7298°E)
Time: 14:40:11
(UTC+00:00)

Sakura Rocket - Pass Details

Date: 07 June 2020
Orbit: 476 x 1743 km, 28.7° (Epoch: 12 July)

Event Time Altitude Azimuth Distance (km) Brightness Sun altitude
Rises 10:12:35 0° 260° (W) 2,879 7.3 -3.9°
Reaches altitude 10° 10:14:45 10° 252° (WSW) 2,104 6.4 -4.3°
Maximum altitude 10:19:20 39° 183° (S) 1,217 4.4 -5.1°
Drops below altitude 10° 10:25:30 10° 117° (ESE) 2,847 5.8 -6.1°
Enters shadow 10:26:29 - 115° (ESE) 3,194 6.0 -6.3°
